Dewpoint
67 67 67 67 66 66 66 66 64 63 62 60 60 58 55 54 55 60 61 63 66 67 65 65 64 64 64 63 63 63 62 62 62 62 62 62 62 61 61 61 62 61 61
67 67 67 67 66 65 65 66 65 64 62 61 60 58 57 54 55 60 61 62 64 66 66 65 65 65 64 64 64 64 64 64 64 64 64 64 64 63 63 63 63 63 63
67 67 67 67 67 66 64 63 64 64 62 60 59 58 57 54 54 60 61 61 62 63 66 66 66 66 65 65 65 65 66 66 66 66 66 65 65 65 64 64 63 61 61
68 67 67 67 67 67 65 62 62 61 61 59 58 56 54 54 53 57 60 61 62 62 64 66 67 66 66 66 66 66 67 67 67 66 65 65 65 65 65 65 62 61 60
67 67 67 67 66 66 65 63 61 60 59 59 58 57 55 54 53 53 58 60 61 62 62 63 64 65 66 67 66 66 65 66 67 67 65 65 64 65 65 64 62 61 61
67 67 67 67 66 65 65 64 62 59 58 57 56 56 55 55 55 55 53 56 60 61 61 61 61 62 63 65 66 66 66 65 66 67 66 64 63 64 63 62 62 62 62
61 66 66 67 67 65 65 64 63 60 58 57 55 54 54 54 55 55 56 54 55 59 60 60 60 61 61 63 64 65 65 65 65 65 66 65 64 63 63 63 63 62 62
50 61 65 65 67 66 65 64 63 60 58 57 55 53 52 53 54 55 56 56 56 56 57 59 60 60 60 60 60 63 65 65 65 65 65 66 65 65 64 64 63 63 63
49 50 59 65 64 66 65 65 64 62 59 57 56 55 52 51 52 54 55 56 56 57 57 58 58 59 60 60 60 60 61 64 64 65 65 65 66 66 65 64 63 63 63
49 50 51 58 64 64 65 65 65 64 62 59 57 55 56 54 51 49 54 55 56 56 57 58 58 58 59 60 59 58 59 61 63 64 65 65 65 65 66 65 64 64 62
48 51 52 53 58 63 63 63 65 64 63 61 58 58 56 55 54 52 50 53 55 56 57 57 57 58 58 59 59 59 59 61 63 64 65 65 65 65 64 65 64 64 62
44 48 53 55 59 62 62 62 63 64 63 62 61 59 57 55 54 55 53 52 53 55 56 57 57 57 58 58 58 57 58 60 63 64 65 65 64 64 64 64 64 64 63
43 44 48 54 57 60 62 62 61 61 62 62 61 59 58 57 56 55 54 54 54 55 55 56 57 57 57 58 58 56 57 59 61 63 64 64 64 65 65 64 63 63 63
42 43 45 50 55 58 60 61 61 61 60 61 61 60 58 58 58 57 55 55 53 55 56 56 58 58 59 59 58 56 58 57 59 61 63 64 63 63 63 64 63 63 61
43 44 45 48 50 53 57 58 59 59 60 60 60 60 58 58 59 59 59 58 55 53 54 55 57 59 60 60 59 60 59 57 58 59 59 60 60 60 61 61 62 61 61
44 44 44 46 50 53 55 56 57 57 58 58 59 59 60 59 59 59 59 58 58 57 54 56 57 58 59 59 59 60 59 55 57 58 58 58 58 58 59 59 59 60 60
44 45 45 46 46 47 50 52 54 55 56 57 57 58 58 59 59 59 59 59 59 59 56 57 57 57 57 58 58 59 58 58 58 56 57 58 57 57 57 57 57 58 59
45 45 45 46 46 47 47 48 49 53 54 54 55 56 57 58 58 58 58 58 58 59 58 56 57 57 57 57 57 57 57 57 57 56 56 56 57 56 56 56 56 56 56
45 45 46 46 46 46 46 47 48 49 51 53 54 55 55 56 57 58 58 58 58 58 59 58 57 58 58 55 54 54 55 55 54 53 55 55 56 56 56 56 55 55 54
46 46 46 47 48 49 49 49 48 49 50 51 53 54 55 55 56 57 58 58 58 58 58 57 57 57 56 52 52 52 52 51 53 52 53 54 54 54 55 55 54 53 52
49 50 50 50 49 49 50 49 50 50 51 51 52 53 54 54 52 55 57 57 58 57 56 56 55 54 52 48 49 50 50 50 50 50 50 51 51 51 52 53 52 51 51
46 47 47 47 46 48 47 47 48 49 49 50 50 51 52 51 52 53 51 49 50 55 55 55 55 53 51 49 48 48 48 46 46 48 48 48 48 48 50 50 51 51 51
45 45 45 45 45 46 47 48 49 49 50 50 51 49 48 48 50 49 48 47 46 46 46 48 47 45 45 44 44 43 44 44 45 46 45 44 46 46 48 49 49 50 50
43 43 43 44 44 45 46 47 47 46 45 45 45 45 45 45 47 46 44 43 43 43 43 43 43 43 43 43 43 43 42 41 41 42 43 37 42 42 42 43 46 47 48
41 41 41 42 42 44 45 45 44 43 43 43 43 44 44 44 45 45 43 41 41 41 42 42 42 42 42 41 40 40 36 35 35 37 38 38 38 37 36 37 39 42 43
39 39 39 40 41 42 44 44 43 41 41 41 41 42 43 42 43 42 41 41 39 39 39 38 37 38 38 39 39 37 36 33 33 34 36 35 34 35 35 35 35 38 38
Lifted_Index
-2 -2 -2 -2 -2 -2 -1 -1 -1 1 2 3 4 4 4 4 4 4 3 3 2 2 2 2 2 2 2 3 3 3 3 3 3 3 3 4 4 4 3 3 3 3 3
-2 -2 -2 -2 -2 -2 -2 -1 -1 0 2 3 3 4 4 4 4 3 3 3 2 2 1 2 2 2 2 2 2 2 2 2 2 2 2 3 3 3 3 3 3 3 3
-2 -2 -2 -2 -2 -2 -2 -2 -1 -0 1 2 2 3 3 3 4 3 3 3 3 2 2 1 1 1 1 1 1 1 1 1 1 1 1 1 2 2 2 2 2 3 3
-2 -2 -2 -2 -2 -2 -2 -2 -2 -1 0 1 2 2 2 3 3 3 3 3 3 2 2 1 1 1 0 0 0 -0 -0 -0 -0 0 1 1 1 1 1 2 2 3 3
-2 -2 -2 -2 -2 -2 -2 -2 -2 -1 -0 0 1 1 2 3 3 3 3 3 3 3 2 2 2 1 1 0 -0 -0 -0 -0 -0 -0 0 1 1 1 1 2 2 3 3
-1 -1 -2 -2 -2 -2 -2 -2 -2 -1 -1 -0 1 1 2 2 3 3 3 3 3 3 3 3 2 2 1 1 0 0 -0 -0 -0 -0 -0 1 1 1 1 2 2 2 2
3 1 -1 -1 -2 -2 -2 -2 -2 -1 -1 -0 0 1 2 2 2 3 3 3 3 3 3 3 3 2 2 2 1 1 0 0 -0 -0 -0 0 1 1 1 1 1 2 2
8 5 1 -1 -1 -2 -2 -1 -1 -1 -1 -1 -0 0 1 2 2 2 3 3 3 3 3 3 3 2 2 2 2 2 1 1 0 0 -0 -0 0 0 1 1 1 1 2
11 9 5 2 -0 -1 -1 -1 -1 -1 -1 -1 -0 0 0 1 1 2 3 3 3 3 2 2 2 2 2 2 2 2 2 1 1 0 -0 -0 -0 -0 0 1 1 2 2
12 10 8 5 2 0 -1 -1 -1 -1 -1 -1 -0 0 0 0 0 1 2 2 3 3 2 2 2 2 2 2 2 2 2 2 1 1 -0 -0 -1 -0 -0 0 1 1 2
12 11 9 7 4 1 0 -0 -1 -1 -1 -1 -0 0 0 0 -0 0 0 1 2 2 2 3 2 2 2 2 2 2 2 2 2 1 0 -0 -0 -0 -0 -0 0 1 1
11 11 10 7 4 2 1 1 0 -0 -0 -0 -0 0 0 -0 -0 -0 -0 0 1 1 2 3 3 2 2 2 2 2 2 2 2 1 0 0 -0 -0 -0 -0 -0 0 1
11 11 10 8 6 3 2 1 1 1 1 1 0 0 0 0 0 0 0 0 0 1 1 2 2 2 2 2 2 2 2 2 2 2 1 0 0 -0 -0 -0 -0 0 0
10 10 11 10 7 5 3 2 2 2 2 2 1 1 1 1 1 1 1 0 0 0 1 1 2 2 2 2 2 2 2 2 2 2 2 1 1 0 0 -0 -0 0 1
10 10 10 10 9 7 5 3 3 2 2 2 2 1 1 1 1 2 1 1 1 1 1 1 1 1 1 2 2 2 2 2 2 2 2 1 1 1 1 1 0 0 1
9 9 10 10 9 8 6 5 4 3 3 2 2 1 1 1 1 1 2 1 1 1 1 1 1 1 1 2 2 2 2 2 2 2 2 2 2 2 1 1 1 1 1
8 9 9 9 8 8 7 6 5 4 4 3 2 1 1 0 0 1 1 1 1 1 1 1 1 1 1 2 2 2 2 2 2 2 2 2 2 2 2 2 2 2 2
8 8 8 8 7 7 6 6 6 5 4 3 2 1 1 0 0 0 1 1 1 1 0 1 1 1 1 1 1 1 1 2 2 2 2 2 2 2 1 1 2 2 2
7 7 6 6 6 5 5 5 5 5 4 3 2 1 1 0 -0 -0 -0 -0 0 0 0 0 1 1 1 1 1 1 1 2 2 2 2 2 1 1 1 1 1 2 2
6 5 5 5 4 4 4 3 3 3 3 3 2 1 1 0 -0 -1 -1 -1 -1 -0 -0 0 1 1 1 1 1 1 2 2 2 2 2 2 1 2 2 2 2 2 2
5 5 4 4 3 2 2 2 2 2 2 2 2 1 1 0 -0 -1 -1 -1 -0 -0 0 0 1 1 1 1 2 2 2 2 2 2 2 2 2 2 2 3 3 3 4
5 5 5 4 3 3 2 2 1 1 1 1 1 1 0 0 -0 -0 -0 0 0 1 1 1 1 1 2 2 2 2 3 2 2 2 2 3 3 3 4 4 5 5 5
7 6 6 6 5 5 4 3 3 2 1 0 -0 -0 0 -0 -0 -0 0 1 2 2 2 2 2 2 2 3 3 3 3 3 3 4 4 4 5 5 6 6 7 7 7
7 7 7 7 7 7 6 5 4 3 2 1 0 0 -0 -0 -0 0 1 2 3 3 3 3 3 3 3 4 4 4 4 4 4 5 6 6 7 7 8 8 9 9 9
8 8 8 8 8 8 7 6 5 5 4 3 2 1 1 1 1 1 2 2 3 3 4 4 4 5 6 6 6 6 6 6 7 8 9 10 10 11 11 11 12 12 11
8 8 8 8 8 8 7 7 6 5 4 3 3 2 2 1 1 1 2 3 3 4 4 5 5 6 7 8 8 8 8 9 10 11 12 12 13 13 14 14 14 13 13